RH
1 2 3 6 11 19 32 25 23 20 29 61 80 86 77 80 100 100 97 100 99 84 78 74 69 70 69 66 65 64 56 63 70 64 61 65 70 72 68 67 62 60 60 59 59
2 2 4 7 10 21 25 32 28 23 24 50 71 84 86 81 98 100 100 100 100 100 89 88 84 78 86 78 72 60 57 60 63 74 80 77 74 80 78 72 70 70 69 72 68
2 2 6 10 18 27 31 36 36 27 25 41 64 82 88 90 87 99 100 100 100 100 100 96 94 83 85 90 94 97 89 71 67 64 61 58 59 69 79 79 83 80 84 84 92
3 6 10 11 17 29 32 34 39 31 26 30 61 74 85 85 81 92 100 100 100 100 100 100 73 70 74 86 81 71 67 71 81 71 66 65 65 60 63 60 60 55 58 64 82
6 9 10 15 14 15 27 35 38 34 29 29 44 69 77 87 82 77 90 100 100 100 100 100 99 88 78 73 79 76 66 61 66 73 67 64 64 63 59 60 67 67 62 65 64
10 11 14 13 12 22 30 38 35 32 30 31 35 53 65 80 84 77 82 97 99 100 100 100 100 100 88 85 82 80 76 74 74 66 57 55 56 53 51 49 60 59 59 55 52
15 17 16 16 16 28 31 34 39 36 32 33 37 48 64 71 78 81 79 83 86 87 87 100 100 100 97 90 82 80 71 67 64 64 65 65 70 61 57 55 58 56 57 56 56
18 18 16 15 20 31 29 31 36 37 34 38 42 45 61 71 74 80 80 87 85 84 87 95 94 90 94 94 94 77 77 80 81 71 69 68 74 73 69 73 61 59 61 59 53
17 17 17 17 22 25 31 35 36 38 34 32 33 31 34 50 64 70 70 77 82 82 82 78 82 97 99 93 96 94 89 90 80 76 76 73 78 62 59 62 63 56 47 34 31
26 41 27 18 28 32 36 41 39 40 41 36 39 37 32 31 44 64 71 68 65 60 62 64 65 61 62 69 90 92 79 84 87 88 80 80 84 69 70 66 49 32 24 25 24
31 18 18 22 29 31 33 44 47 42 43 45 44 39 37 38 39 38 48 54 54 58 61 63 58 54 53 45 46 49 54 68 68 65 73 74 53 28 20 20 18 16 17 17 17
23 17 13 13 15 20 28 33 45 48 46 42 40 39 40 38 37 37 38 40 50 46 35 38 42 45 50 57 54 49 46 40 38 37 35 27 21 20 19 18 18 18 21 22 25
21 20 15 13 13 13 20 31 43 49 46 46 49 46 43 43 42 39 34 30 32 39 42 44 47 50 48 44 36 31 28 28 30 26 23 22 20 26 31 33 32 30 29 27 26
29 30 25 14 10 10 15 21 35 45 44 43 44 43 41 37 36 37 39 38 36 37 39 39 42 46 47 45 41 36 38 40 40 38 37 36 36 38 40 42 37 30 30 28 22
32 28 27 25 21 14 12 13 17 24 25 28 30 33 34 36 38 41 45 44 44 45 45 44 43 42 43 42 42 42 39 40 40 43 43 43 39 36 39 38 32 29 25 21 16
30 34 26 22 25 26 21 19 16 18 19 21 22 27 33 44 47 49 48 47 43 41 41 39 40 40 43 48 47 44 38 31 32 34 35 33 30 31 31 29 26 19 18 19 21
16 16 23 31 24 22 25 27 27 28 23 22 24 28 30 36 34 33 35 34 36 33 36 38 40 38 32 30 27 25 27 29 29 29 31 30 28 24 21 21 22 24 26 31 32
18 18 15 16 24 35 38 36 31 24 25 31 32 30 29 32 33 34 34 31 30 31 26 26 25 27 24 24 22 19 19 20 21 19 20 21 22 23 24 28 32 39 43 43 46
17 17 18 18 20 20 18 17 21 31 36 38 38 39 38 39 40 40 43 46 40 39 40 40 37 40 40 38 38 38 40 35 35 35 34 35 36 38 40 43 46 45 42 40 40
25 22 18 19 17 19 20 19 20 21 26 24 23 23 24 26 27 26 27 27 28 29 31 31 32 31 29 28 26 26 27 32 35 35 35 34 33 32 32 34 35 33 30 28 28
38 30 29 26 22 21 19 20 20 20 21 20 19 20 22 21 21 21 21 21 23 25 25 24 24 25 24 23 22 22 23 25 24 24 22 22 22 23 22 22 22 23 22 23 25
62 55 48 41 31 28 26 27 24 26 22 22 21 22 20 21 22 26 29 25 20 20 21 23 25 28 31 34 33 27 26 27 28 27 25 24 24 24 25 27 28 30 31 33 36
70 76 71 61 51 44 38 38 29 29 30 30 27 26 24 26 24 22 23 28 37 29 22 19 19 20 21 25 29 40 49 50 44 40 43 40 38 36 34 36 34 37 36 34 35
71 58 57 70 82 65 61 60 55 50 38 33 30 30 28 36 36 37 34 32 41 43 42 39 30 26 27 28 28 32 31 34 37 42 39 40 47 52 49 45 42 43 47 49 49
76 77 77 61 53 62 65 70 66 65 70 65 44 42 40 47 60 57 42 53 46 52 57 57 60 54 51 46 35 31 32 35 35 39 37 39 39 41 42 50 45 46 54 58 54
64 93 98 100 96 67 54 54 75 87 73 80 80 76 83 66 52 64 59 58 45 43 45 67 84 96 83 67 60 59 52 48 42 43 46 52 50 48 46 44 50 57 62 62 62
75 63 93 100 100 90 74 81 74 64 67 57 69 82 77 80 75 72 70 81 89 92 93 79 50 71 78 86 96 62 78 79 53 57 49 56 52 65 62 58 49 54 57 62 72
Wind_Speed
41 54 73 83 96 103 94 92 91 99 110 107 101 99 97 97 89 86 85 83 78 76 73 69 66 63 61 58 58 56 54 53 53 52 51 50 50 50 49 49 48 48 50 49 49
40 51 66 82 97 95 93 87 86 93 105 108 101 97 96 95 93 85 82 81 80 77 74 72 69 66 63 62 61 58 58 58 57 57 56 56 56 55 55 55 53 54 53 55 56
41 55 65 75 88 91 90 86 84 88 97 105 102 96 93 93 92 89 83 79 80 80 76 73 72 71 68 67 65 63 60 61 60 59 58 57 60 61 61 59 60 60 60 61 63
54 64 74 77 88 92 88 85 79 80 88 98 101 96 91 90 89 89 88 81 78 77 76 75 75 72 71 70 68 68 66 65 64 64 63 61 62 62 64 61 62 63 65 65 67
49 57 63 71 85 87 84 80 73 75 80 89 97 96 90 88 86 86 87 85 79 74 75 74 74 74 72 70 71 70 68 67 67 67 67 66 66 66 67 66 67 69 70 71 72
41 43 55 66 77 79 76 71 65 66 69 79 88 93 91 85 82 82 81 83 85 82 74 73 73 75 74 74 73 74 73 73 73 72 72 72 73 73 73 72 72 76 77 78 80
32 35 44 52 64 70 68 67 60 60 58 67 79 86 88 85 82 79 79 79 80 82 82 82 82 80 78 78 78 77 75 75 76 77 77 77 81 77 79 80 82 85 84 84 86
23 26 29 41 59 64 61 57 54 55 52 58 68 79 81 81 79 76 75 74 76 77 76 76 77 78 77 76 75 77 77 77 78 80 80 81 85 81 80 82 88 83 82 83 84
21 18 22 41 52 56 57 50 47 50 47 48 59 67 72 74 77 76 74 72 71 72 74 74 74 71 71 69 70 73 75 77 78 79 79 78 81 79 77 78 79 81 81 79 77
36 29 12 24 43 49 48 44 40 38 37 36 40 47 56 63 70 74 74 74 72 71 71 70 72 72 71 71 71 70 71 71 71 70 73 72 75 77 76 78 80 78 77 78 77
42 33 25 19 18 37 39 38 33 31 31 33 34 37 37 44 56 65 70 71 71 72 72 72 73 72 73 74 73 73 75 75 74 74 75 76 78 80 78 77 76 74 76 77 78
39 33 31 29 31 38 43 39 35 33 31 29 28 26 26 26 30 40 55 66 68 67 71 75 77 75 74 73 73 73 75 76 74 75 77 79 79 79 79 78 76 77 79 80 81
45 35 27 27 29 34 42 47 42 40 38 34 31 30 30 30 31 34 39 44 41 39 42 48 55 61 66 70 75 77 78 78 79 77 77 78 75 75 77 75 76 76 75 76 74
54 51 46 33 19 25 30 42 47 43 40 37 35 32 29 28 27 27 25 24 26 28 29 31 34 37 42 47 53 57 58 60 62 65 69 73 73 65 60 62 65 65 66 69 69
64 53 46 45 40 27 15 15 23 34 36 35 32 29 26 23 23 23 24 25 27 29 31 30 34 37 41 44 46 49 50 48 47 47 48 49 48 48 52 56 59 61 61 61 59
62 64 60 44 40 41 38 24 16 8 23 21 20 24 22 19 17 19 21 23 27 30 33 36 37 40 42 44 45 46 47 45 45 47 47 48 48 49 50 50 51 52 47 42 38
84 74 61 62 57 48 43 37 29 25 14 8 10 13 12 17 21 21 24 29 32 32 35 37 40 39 39 40 41 40 40 42 42 42 40 41 41 42 41 37 35 35 31 26 22
77 78 77 68 57 53 51 50 48 40 28 21 18 10 4 3 7 11 16 19 23 27 28 26 27 29 29 28 28 26 24 24 24 24 23 21 22 24 24 22 18 16 14 11 16
66 66 72 75 75 74 69 59 47 42 40 38 33 29 24 22 20 18 15 14 12 14 16 14 14 14 13 14 14 15 16 14 14 13 11 9 8 9 11 11 12 15 16 17 18
59 61 64 67 65 63 67 70 68 67 68 60 51 43 37 33 29 27 25 24 22 21 19 20 20 19 18 17 17 16 16 16 15 13 13 12 12 11 12 15 15 15 16 17 18
49 51 54 55 57 59 57 57 62 59 60 55 54 58 57 54 56 56 54 53 50 48 45 41 42 42 39 36 33 30 28 26 24 23 22 20 18 18 16 16 17 18 19 20 21
37 40 42 44 46 49 50 51 52 53 53 52 49 52 47 47 50 48 53 53 51 48 47 47 47 47 49 51 51 50 47 41 37 36 32 29 26 25 27 26 26 26 26 27 29
26 28 31 34 36 37 38 39 42 43 43 43 44 43 45 41 43 46 44 45 47 46 47 45 46 48 47 46 46 45 46 47 46 45 45 43 42 39 36 36 35 35 34 34 34
17 20 22 24 25 27 28 30 30 30 33 35 35 36 36 35 36 36 37 37 37 38 38 38 38 38 39 42 42 44 45 42 42 41 41 41 39 38 37 36 35 36 38 38 38
10 10 10 18 16 18 19 19 20 22 21 22 25 26 26 25 25 26 29 29 30 30 30 31 30 30 30 30 34 39 37 38 35 35 36 37 37 37 37 37 38 38 37 37 36
5 4 5 7 12 11 10 12 11 12 15 14 13 13 15 18 19 17 18 21 23 23 25 25 25 25 24 23 26 28 31 34 33 31 25 29 30 32 34 34 32 32 33 34 35
10 7 4 6 9 10 6 7 8 10 6 9 7 8 10 9 10 13 14 12 13 15 15 18 22 22 22 20 22 28 28 28 33 32 29 24 27 26 27 30 34 33 34 34 35
Wind_Direction
186 188 190 190 193 198 200 204 206 209 208 208 210 214 217 218 218 224 225 226 228 229 231 233 235 237 240 241 243 242 246 247 250 253 257 259 262 265 267 268 270 271 273 273 273
172 180 182 187 193 192 199 201 204 208 208 208 210 212 215 217 217 220 225 227 229 232 235 235 236 239 243 245 246 247 249 251 253 254 256 258 261 263 264 266 269 270 272 273 275
160 168 174 182 187 191 196 200 203 206 207 207 210 211 213 217 219 219 222 227 230 232 235 238 239 241 241 243 245 249 252 253 256 258 260 263 265 265 266 267 268 271 273 275 277
154 165 172 180 183 190 194 198 202 204 207 208 209 211 214 217 219 220 222 224 230 233 237 240 242 244 246 249 250 251 252 253 256 260 261 263 265 267 269 270 271 272 273 274 276
155 162 170 177 184 190 191 197 201 203 206 208 210 212 214 217 220 222 224 225 227 232 238 240 243 244 247 250 253 255 256 257 259 261 265 266 268 270 272 271 272 275 274 275 276
142 157 168 180 183 186 190 196 201 204 206 208 210 212 216 217 219 224 225 227 229 230 234 240 244 247 250 252 254 257 259 261 262 265 266 269 271 273 276 275 277 279 281 281 282
128 154 170 181 179 185 191 193 199 203 206 208 209 212 216 218 220 225 228 230 232 233 236 239 243 248 252 255 256 259 261 263 264 266 268 270 271 273 275 276 279 281 281 281 283
126 147 162 174 181 185 191 192 196 200 203 207 208 212 215 219 222 224 229 232 235 237 239 241 246 250 252 254 258 260 262 264 266 268 269 271 274 275 276 278 279 281 281 282 282
78 110 147 163 181 184 190 195 194 198 204 206 209 213 217 221 225 227 231 234 237 241 244 247 250 251 255 257 259 262 264 266 268 270 271 273 274 276 277 277 279 281 282 282 281
68 62 95 159 180 186 189 193 193 196 199 202 205 211 219 225 226 228 231 234 239 243 247 251 253 256 257 259 261 263 266 268 269 270 273 273 273 277 277 278 280 282 283 282 284
91 89 88 108 164 189 192 196 199 194 193 197 204 211 215 220 225 229 232 236 241 246 251 253 255 257 259 261 261 262 264 265 268 270 270 271 274 276 278 279 281 281 282 283 285
86 95 106 117 137 161 182 189 196 196 195 193 197 197 200 204 213 223 231 236 239 247 251 253 254 256 258 260 263 265 267 269 271 271 272 274 275 276 278 279 280 281 283 284 285
65 69 85 116 134 156 172 185 190 196 197 196 196 198 205 209 215 220 223 229 236 245 251 256 258 260 261 262 263 265 267 270 271 272 273 275 276 279 281 282 279 280 284 287 288
54 57 60 73 120 128 167 183 189 195 199 202 202 202 209 216 219 219 220 232 237 245 250 254 259 262 264 265 265 267 270 273 274 275 276 277 280 282 284 285 283 284 284 287 289
57 55 56 65 66 78 122 143 187 199 202 200 205 210 217 223 223 222 225 236 245 253 256 259 262 266 271 272 273 274 277 278 279 279 278 278 280 281 281 281 283 284 286 288 290
59 59 59 63 64 65 69 87 137 82 200 204 203 208 212 223 233 240 249 252 259 265 269 273 275 277 279 278 277 274 275 274 273 274 277 279 282 283 283 285 285 286 287 287 291
58 60 62 66 69 71 71 73 77 72 101 174 205 223 222 231 240 248 259 268 268 272 277 281 280 277 274 275 273 274 275 275 273 274 275 278 281 281 282 283 284 285 290 297 309
56 58 62 67 68 69 71 74 76 80 80 82 80 85 53 326 299 279 276 278 280 281 276 278 279 281 278 280 279 282 278 279 280 282 284 285 288 287 290 293 308 325 328 328 327
59 59 60 64 67 68 67 70 75 76 78 81 86 90 90 88 84 81 77 64 69 71 69 67 63 65 54 41 40 41 36 38 34 21 5 357 355 6 6 354 342 333 334 339 342
54 56 60 64 65 65 66 71 74 75 74 78 80 82 83 83 82 81 79 75 72 70 68 65 63 62 59 57 56 51 46 41 35 29 23 15 10 6 359 357 353 350 348 350 351
59 58 58 58 60 63 66 62 68 74 75 79 82 78 80 79 80 80 76 75 77 78 77 77 75 72 69 65 61 57 55 53 50 44 40 33 29 24 26 26 28 28 24 23 23
62 63 61 61 60 60 64 68 63 65 71 72 73 72 77 71 69 71 66 68 69 71 73 75 73 69 67 67 66 66 64 61 55 51 49 45 45 38 37 37 34 38 36 37 38
62 62 60 61 62 62 61 65 68 68 68 67 69 68 68 66 65 65 63 58 61 63 63 65 65 64 60 61 60 61 61 59 58 56 55 55 52 49 49 48 47 46 45 45 44
41 60 71 69 66 59 56 59 61 64 63 65 66 65 63 63 63 63 61 57 56 54 54 57 59 57 58 57 54 52 52 55 55 53 52 53 50 46 45 43 43 43 41 39 37
23 33 36 51 63 64 61 63 61 58 58 59 61 62 61 63 62 60 56 57 54 50 47 46 48 50 49 48 43 38 44 42 43 45 44 40 37 37 35 33 31 31 31 30 29
1 342 346 340 9 32 51 66 64 59 47 42 45 50 54 52 50 49 52 48 48 46 44 40 36 30 26 31 28 25 26 26 26 29 28 25 23 21 21 21 20 18 18 16 14
278 313 256 297 290 325 352 345 36 17 17 27 24 15 11 14 21 33 31 25 23 23 20 19 18 18 17 10 6 11 7 4 14 11 15 11 5 359 1 359 3 7 3 1 0